Theta_e
321 322 322 327 334 336 339 342 344 345 344 345 346 346 349 348 348 349 350 351 350 350 350 351 348 349 348 349 348 348 347 348 348 347 347 345 345 344 347 347 347 346 344 343
321 322 323 326 328 335 340 342 344 344 344 345 346 347 347 348 348 347 348 350 350 350 351 352 351 349 350 350 349 348 348 347 348 347 346 345 345 346 348 347 345 345 345 345
322 321 322 325 327 330 338 342 343 344 343 345 347 346 347 348 348 347 347 347 347 348 349 349 350 349 349 349 350 348 347 345 346 347 346 346 347 347 348 343 341 341 342 336
320 321 322 324 328 329 333 336 342 343 344 346 345 347 348 348 350 349 347 346 346 346 347 347 347 347 348 347 348 348 347 345 343 345 347 347 346 349 347 338 332 336 335 337
324 321 322 324 327 329 332 332 337 341 345 343 347 346 343 348 350 350 348 347 346 345 346 346 346 347 345 345 346 348 347 345 343 345 346 346 345 346 341 337 335 336 336 337
325 321 322 324 327 329 328 331 332 338 340 343 342 345 340 349 349 348 346 346 346 345 345 345 346 344 345 345 346 346 346 345 344 344 345 345 342 344 338 334 337 339 333 339
326 324 323 322 325 329 329 331 334 336 339 337 336 346 343 341 344 345 345 345 345 345 345 345 346 345 345 345 346 346 346 346 343 343 343 341 340 339 331 327 330 328 328 331
327 326 324 323 325 327 329 330 333 336 337 335 335 341 341 341 339 340 344 344 345 345 345 346 345 345 346 345 346 346 346 346 340 336 338 339 340 335 327 325 326 324 325 328
327 326 321 322 324 327 329 329 331 332 327 334 336 339 335 338 338 338 340 343 344 345 345 346 346 345 346 347 346 347 346 346 336 329 332 336 339 334 326 323 323 319 322 327
324 325 323 322 324 324 326 327 328 329 337 334 332 334 333 339 340 341 340 341 342 345 346 347 347 345 346 347 347 348 346 342 329 329 328 331 334 330 325 325 325 320 318 322
325 325 323 322 323 324 325 326 327 330 331 335 334 333 335 338 340 340 341 339 341 344 345 346 347 345 345 345 348 348 348 347 339 325 326 329 332 330 325 329 325 322 319 318
323 325 327 325 323 323 325 326 328 331 333 329 331 332 331 334 336 336 338 338 338 342 343 346 348 347 345 346 346 347 348 348 346 336 325 327 330 328 329 328 328 325 321 319
322 324 327 326 325 323 323 324 326 327 328 336 331 331 334 332 333 332 334 337 337 338 342 345 346 347 344 344 345 346 347 348 348 347 341 330 329 332 329 334 337 328 324 327
323 327 328 329 329 326 325 324 324 325 329 328 330 331 332 333 336 337 336 335 337 337 341 343 344 342 341 341 343 344 346 348 349 349 348 344 334 331 341 343 343 331 327 324
329 330 327 328 329 327 326 323 324 326 328 330 329 331 333 335 337 338 335 338 338 338 340 338 338 338 339 340 340 342 345 346 347 348 348 348 346 343 345 348 345 334 326 328
324 328 325 326 326 326 326 326 325 325 325 327 327 333 333 334 334 335 337 338 340 338 336 336 336 338 338 339 339 341 343 344 345 347 348 349 349 349 348 349 346 338 329 329
333 328 328 330 327 325 326 327 326 326 327 327 330 331 336 333 334 335 335 337 336 337 337 336 337 338 338 339 339 340 340 342 343 344 345 346 347 348 349 348 344 336 331 333
334 332 328 332 326 326 326 326 326 326 327 328 328 331 334 333 333 334 335 337 335 337 338 337 337 337 337 338 338 338 338 338 339 341 342 345 346 347 348 347 346 334 335 335
332 330 334 333 332 330 330 332 326 325 329 329 329 331 333 330 332 334 330 330 332 334 335 336 337 338 337 335 334 331 329 330 335 339 342 343 345 347 348 348 344 336 333 335
330 332 333 333 330 330 337 334 333 334 331 335 335 336 336 332 334 338 329 331 331 332 333 335 336 334 330 328 327 327 328 331 333 335 340 346 347 348 348 347 344 337 338 336
336 341 339 340 338 335 334 332 333 335 335 333 334 335 333 336 335 332 333 334 333 335 337 334 332 331 331 330 331 332 332 331 332 336 342 347 348 348 348 346 344 340 340 335
337 338 343 341 339 340 331 333 338 335 332 332 332 333 334 336 337 337 337 333 330 330 330 330 329 329 328 328 329 329 331 334 338 336 341 346 346 343 343 344 342 342 338 337
336 336 340 339 338 332 330 330 330 333 333 333 334 334 333 334 335 336 336 331 331 331 330 330 330 330 330 330 331 331 330 335 337 340 345 345 342 341 341 341 341 339 338 337
335 333 335 338 335 332 330 329 328 328 327 328 329 330 329 333 337 340 337 335 335 334 333 332 331 332 334 334 334 333 332 340 342 342 340 341 340 339 339 337 337 337 336 335
331 333 334 335 333 330 330 325 325 325 324 323 324 326 325 325 327 332 336 337 337 336 333 329 327 325 326 329 334 339 342 342 338 338 339 339 339 338 334 335 333 332 329 328
321 331 336 335 332 333 330 324 322 324 323 323 323 322 323 323 322 322 322 323 324 328 334 335 335 332 331 332 334 334 338 338 337 338 338 336 336 334 332 331 329 327 326 325
Wind_Speed
7 9 16 18 16 9 14 14 16 8 10 11 12 12 6 17 20 22 23 25 27 29 28 26 28 28 29 29 26 26 24 23 22 20 20 20 20 17 17 16 15 15 14 13
6 16 14 15 13 9 14 17 14 8 11 12 10 13 8 17 24 26 26 26 27 27 26 28 29 30 32 31 29 27 27 23 25 23 21 20 17 17 16 16 16 15 13 12
13 7 10 12 12 12 13 18 15 13 10 4 8 14 12 13 21 25 26 26 26 28 28 28 30 32 32 33 32 29 25 23 26 25 23 22 20 19 18 16 15 12 11 11
10 7 17 14 17 14 17 13 16 14 13 13 12 12 12 17 18 22 28 30 30 29 28 27 29 33 34 33 31 31 26 24 26 26 26 24 22 17 14 12 10 11 12 11
9 11 12 20 20 13 10 11 16 17 18 7 10 7 11 10 17 23 31 34 35 33 31 31 31 32 34 31 33 33 29 27 28 27 27 24 23 20 16 14 13 14 14 14
14 3 13 14 14 17 10 11 6 5 9 9 16 14 11 9 16 24 28 34 37 35 34 33 31 32 34 34 34 34 33 30 30 29 29 28 25 21 18 16 14 15 16 17
12 12 7 9 15 12 12 13 7 9 7 9 9 12 16 11 19 22 20 35 39 36 34 34 33 35 38 38 37 36 36 34 32 33 33 31 27 23 19 16 15 15 15 15
14 14 16 14 15 13 19 21 10 16 12 12 5 11 8 20 27 18 19 19 28 36 36 36 41 40 40 40 37 36 39 37 36 36 37 34 30 27 24 21 18 17 16 13
12 15 4 11 9 17 11 13 16 9 2 7 7 6 11 14 13 13 22 20 27 33 39 42 39 42 41 40 38 38 40 39 39 40 38 37 34 31 27 23 18 17 17 16
9 5 15 12 12 9 13 14 11 8 18 17 8 5 6 6 11 15 12 24 30 33 35 37 42 46 44 41 40 40 39 39 42 42 42 41 38 33 28 25 23 17 18 18
12 12 5 9 15 22 8 9 3 7 8 15 15 13 8 13 13 12 15 26 28 31 35 38 42 48 46 43 43 44 43 42 41 45 46 45 43 35 31 31 23 23 19 19
13 10 12 18 4 10 21 20 18 11 12 6 10 13 6 14 14 13 18 16 19 26 31 33 32 34 39 46 45 45 46 47 45 45 48 49 47 41 40 34 31 23 22 18
9 5 8 9 12 14 9 18 21 17 11 17 15 12 4 6 10 20 19 18 15 21 24 27 28 32 37 39 44 47 49 50 49 49 49 51 50 47 46 41 31 21 18 17
11 8 10 15 19 16 15 15 16 20 15 15 16 18 10 11 13 16 20 25 19 19 24 27 28 32 33 33 36 41 44 45 44 48 51 52 52 50 45 45 33 28 21 10
8 10 17 24 23 25 24 22 22 18 23 19 19 20 17 15 17 22 28 20 16 19 23 32 32 32 33 34 34 35 36 38 40 44 49 52 49 48 48 47 41 42 38 34
5 3 3 19 23 23 27 26 24 25 27 20 22 13 12 16 15 16 20 19 20 25 30 31 31 33 34 33 32 30 29 30 31 35 38 39 42 44 45 47 46 46 45 34
4 0 2 9 14 18 21 25 24 19 21 22 20 16 10 12 15 17 24 24 27 29 29 31 36 37 34 29 26 23 21 20 22 24 28 30 33 36 37 40 44 46 41 34
4 2 2 9 3 10 17 22 26 25 21 19 17 13 13 15 20 17 21 25 30 26 27 30 32 30 21 17 14 12 10 8 11 17 20 24 24 27 29 31 40 43 33 23
9 4 1 4 8 11 5 6 12 20 24 18 19 18 13 9 4 7 13 23 20 23 19 12 14 16 13 13 10 7 4 4 8 12 14 17 19 22 24 27 36 42 31 22
14 10 6 1 5 5 7 11 10 4 14 14 13 13 9 11 9 4 4 8 13 11 13 17 21 21 19 17 14 10 6 4 5 5 6 9 12 15 17 25 34 41 34 26
7 3 5 4 5 3 12 19 7 10 5 6 9 11 12 7 1 11 15 21 23 24 26 27 23 21 17 13 9 7 7 7 8 9 9 11 11 14 14 20 24 37 31 25
9 8 4 2 5 5 25 11 5 7 4 9 17 30 31 24 23 26 27 29 31 31 30 26 23 19 14 9 4 1 6 10 13 9 11 14 16 16 14 17 24 27 20 22
7 6 7 5 4 9 12 7 9 4 15 18 24 31 35 28 22 20 23 23 24 23 23 19 15 11 10 10 10 7 3 4 6 12 14 14 17 17 17 15 20 19 21 23
3 3 6 6 5 5 9 8 9 13 18 18 19 22 33 30 23 19 22 22 21 18 20 18 15 11 10 9 8 6 7 8 8 13 14 16 17 16 16 13 14 15 19 20
3 1 10 4 13 7 8 7 8 12 16 23 24 23 25 29 33 24 23 23 21 20 20 18 16 16 15 13 10 10 10 9 11 14 17 17 16 18 17 19 19 18 15 13
9 3 4 6 10 2 5 10 13 18 15 17 25 26 22 23 26 23 26 23 22 19 17 15 13 12 12 12 10 10 11 12 11 14 15 16 17 16 14 14 14 10 9 11
Wind_Direction
182 198 199 191 196 209 198 206 196 177 166 181 221 246 206 194 207 202 204 204 205 211 211 212 215 220 223 224 224 221 220 221 219 223 227 235 241 251 263 266 271 265 263 263
174 217 202 200 201 182 197 215 203 158 160 191 203 236 234 206 214 212 207 209 212 216 213 217 219 222 226 228 225 225 225 226 225 229 234 241 248 254 262 266 268 261 260 259
208 209 189 197 200 190 201 204 190 189 163 103 184 237 231 225 219 222 223 220 219 219 214 217 219 222 227 230 228 226 224 225 226 229 236 240 242 248 254 258 255 252 244 243
218 209 190 199 210 198 210 213 203 173 173 222 201 258 221 221 215 220 227 221 221 220 220 220 219 224 227 231 231 230 226 225 225 229 235 239 243 243 253 255 246 237 239 235
189 186 190 202 207 200 217 177 192 191 204 200 208 242 256 199 220 221 223 224 223 220 219 221 220 223 229 231 233 231 228 227 227 228 233 237 239 243 246 240 234 238 237 232
214 191 203 198 204 195 145 118 90 136 188 221 213 215 238 199 219 228 220 221 221 218 217 221 223 226 230 230 232 230 228 227 228 228 231 233 235 238 240 240 238 242 237 234
207 217 227 192 193 197 197 171 177 197 199 225 226 216 242 231 229 229 224 216 217 216 217 217 215 221 228 229 230 231 228 226 226 227 227 228 229 231 233 235 237 237 233 230
203 219 209 199 209 184 193 199 206 207 210 218 167 218 237 232 247 248 244 233 220 217 216 218 221 223 227 229 229 229 228 226 225 225 225 226 226 227 228 228 231 233 229 230
197 223 197 214 194 186 182 216 222 231 59 226 196 241 274 254 247 236 231 218 218 216 215 217 219 223 224 227 226 224 225 225 224 223 226 227 228 226 227 230 231 235 227 225
189 216 211 192 201 189 202 175 195 218 223 234 209 231 228 229 243 237 219 216 225 218 215 216 216 221 224 226 226 226 225 225 223 225 226 229 229 227 223 231 231 228 232 223
187 214 181 204 208 210 184 192 208 235 231 231 236 233 213 233 244 241 235 230 227 215 212 212 214 221 223 225 229 227 227 226 227 227 227 229 231 226 231 229 232 238 222 226
205 210 228 228 186 234 230 218 211 219 201 227 251 227 189 226 244 246 244 243 235 219 215 214 211 214 219 224 228 231 230 229 230 231 231 232 233 229 228 230 229 228 240 226
166 198 204 231 237 221 227 228 225 230 245 216 227 225 199 237 248 249 255 256 245 226 212 207 206 213 222 227 228 232 233 233 234 233 235 236 235 232 234 233 225 228 228 251
175 194 220 231 233 229 225 226 220 220 227 224 229 237 223 241 240 252 240 253 245 223 206 205 208 218 227 230 233 235 237 235 234 235 238 239 240 238 234 232 218 212 219 215
194 214 221 233 239 212 216 225 222 218 233 227 229 220 219 226 233 234 236 249 230 214 204 210 215 221 229 233 238 240 240 241 240 243 243 245 245 241 238 234 222 207 209 216
155 217 231 245 234 223 220 219 225 222 227 235 245 223 218 233 239 242 236 227 215 214 213 214 216 224 227 231 237 241 244 245 247 247 250 251 252 250 245 238 222 212 211 207
178 193 14 291 261 232 236 226 220 220 229 213 222 225 216 226 226 233 238 228 227 222 220 219 219 222 228 231 238 246 252 252 254 256 252 253 253 255 253 244 226 212 210 217
150 124 141 285 280 216 237 230 227 223 220 215 240 248 228 233 244 247 237 236 227 228 225 224 224 223 230 233 234 230 235 248 267 261 261 258 258 254 251 247 234 210 213 224
132 110 46 260 251 274 254 194 215 211 234 227 230 235 238 221 173 225 236 229 236 232 237 241 228 214 195 168 151 146 154 216 248 256 258 263 263 256 248 242 228 209 207 252
108 120 111 250 250 253 39 340 344 312 229 189 204 220 204 155 209 179 182 182 188 165 167 161 155 151 142 135 143 153 163 206 223 232 236 245 243 242 246 242 228 213 219 244
166 96 78 351 274 262 3 334 299 195 190 166 197 168 135 153 93 117 117 114 122 133 135 132 129 130 133 139 151 168 190 203 209 207 216 208 211 223 219 230 231 219 236 228
161 160 143 114 294 245 355 337 293 350 19 128 135 116 105 109 108 106 101 99 102 105 112 115 111 106 104 100 88 192 212 224 217 265 207 200 196 195 195 214 218 230 218 211
176 169 144 131 264 326 349 310 311 94 84 88 96 105 109 102 96 95 97 95 93 94 98 98 95 88 71 54 42 20 358 260 218 219 194 181 181 184 189 196 210 218 225 221
73 142 111 125 165 8 346 34 48 78 78 80 86 90 94 101 94 87 86 87 84 81 81 80 76 73 72 49 18 350 323 215 191 173 173 174 181 169 174 186 196 201 212 215
8 87 144 112 140 198 239 120 95 80 79 82 79 73 79 82 87 83 81 80 82 79 74 71 69 61 54 53 61 78 99 142 147 175 172 163 175 183 193 190 190 200 203 225
346 355 156 163 166 129 130 129 116 90 77 78 85 80 72 75 79 81 77 70 66 66 64 61 66 77 90 94 100 108 131 163 174 184 181 183 192 203 198 193 202 223 223 209